CW4167 Weather Reports


Display with metric or nautical units.
time (UTC)temp
F
wind
direction
speed
MPH
gust
MPH
rain 1hr
in
rain 24hr
in
rain mn
in
humidity
%
barometer
mb
20260901091706 64 282 7.0 14.0 0.01 0.19 0.03 87 1009.3
20260901090206 64 311 3.0 6.0 0.01 0.19 0.03 89 1009.3
20260901085707 63 312 5.0 7.0 0.01 0.19 0.03 89 1009.3
20260901085206 63 303 3.0 13.0 0.01 0.19 0.03 88 1009.3
20260901084706 63 326 6.0 10.0 0.01 0.19 0.03 88 1009.2
20260901083706 63 280 5.0 9.0 0.00 0.18 0.02 88 1009.2
20260901083207 63 285 7.0 10.0 0.00 0.18 0.02 88 1009.1
20260901080708 63 273 5.0 10.0 0.00 0.18 0.02 92 1008.7
20260901075205 62 280 6.0 14.0 0.00 0.18 0.02 93 1008.6
20260901073706 61 264 5.0 15.0 0.01 0.18 0.02 93 1008.5
20260901073205 61 294 4.0 8.0 0.01 0.18 0.02 93 1008.4
20260901072708 61 255 7.0 15.0 0.01 0.18 0.02 93 1008.4
20260901072206 61 288 7.0 10.0 0.01 0.18 0.02 93 1008.4
20260901071206 61 293 3.0 13.0 0.01 0.18 0.02 93 1008.3
20260901070207 60 295 4.0 6.0 0.01 0.18 0.02 93 1008.2
20260901065706 60 286 5.0 9.0 0.01 0.19 0.02 93 1008.2
20260901065205 60 297 6.0 10.0 0.01 0.20 0.02 93 1008.2
20260901064706 60 295 5.0 10.0 0.01 0.20 0.02 93 1008.1
20260901063706 60 286 5.0 9.0 0.00 0.19 0.01 93 1008.1
20260901063205 60 292 7.0 13.0 0.00 0.19 0.01 93 1008.1
20260901062705 60 287 6.0 9.0 0.00 0.19 0.01 93 1007.9
20260901060206 60 287 5.0 7.0 0.00 0.19 0.01 93 1007.7
20260901054205 60 277 3.0 7.0 0.00 0.19 0.01 92 1007.6
20260901053205 59 232 3.0 5.0 0.00 0.19 0.01 93 1007.5
20260901052207 59 199 3.0 6.0 0.00 0.19 0.01 92 1007.5
20260901051706 59 233 1.0 3.0 0.00 0.19 0.01 93 1007.4
20260901050705 58 232 3.0 5.0 0.00 0.20 0.01 92 1007.4
20260901050206 58 249 3.0 6.0 0.00 0.20 0.01 92 1007.2
20260901045705 58 257 2.0 6.0 0.00 0.20 0.01 92 1007.2
20260901045206 58 254 2.0 5.0 0.00 0.20 0.01 92 1007.2
20260901043205 58 244 2.0 5.0 0.00 0.20 0.01 92 1007.0
20260901042706 58 249 2.0 5.0 0.00 0.20 0.01 92 1007.0
20260901042206 58 232 3.0 6.0 0.00 0.20 0.01 92 1007.0
20260901040206 57 211 5.0 6.0 0.00 0.20 0.01 92 1006.9
20260901034705 57 216 3.0 6.0 0.00 0.20 0.01 92 1006.8
20260901033706 57 199 3.0 5.0 0.00 0.20 0.01 92 1006.8
20260901033205 57 208 2.0 5.0 0.00 0.20 0.01 92 1006.8
20260901032705 57 200 3.0 5.0 0.00 0.20 0.01 92 1006.7
20260901031707 57 188 4.0 5.0 0.00 0.20 0.01 92 1006.7
20260901030206 57 202 3.0 5.0 0.00 0.20 0.01 92 1006.7
20260901025706 56 170 2.0 3.0 0.00 0.20 0.01 92 1006.6
20260901024206 56 200 3.0 5.0 0.00 0.20 0.01 92 1006.5
20260901023205 56 183 4.0 6.0 0.00 0.20 0.01 92 1006.5
20260901022707 56 186 5.0 7.0 0.00 0.20 0.01 92 1006.5
20260901022205 56 180 4.0 5.0 0.00 0.20 0.01 92 1006.5
20260901021706 56 178 3.0 5.0 0.00 0.20 0.01 92 1006.5
20260901020706 56 196 3.0 5.0 0.00 0.20 0.01 92 1006.4
20260901020206 56 173 3.0 3.0 0.00 0.20 0.01 92 1006.4
20260901015705 56 172 2.0 3.0 0.00 0.20 0.01 91 1006.4
20260901015206 56 195 4.0 3.0 0.00 0.20 0.01 91 1006.4
20260901014705 56 191 3.0 5.0 0.00 0.20 0.01 91 1006.3
20260901013207 56 182 1.0 3.0 0.00 0.20 0.01 91 1006.2
20260901012707 56 191 2.0 5.0 0.00 0.20 0.01 91 1006.2
20260901011705 57 178 3.0 6.0 0.00 0.20 0.01 91 1006.2
20260901011205 57 159 3.0 6.0 0.00 0.20 0.01 91 1006.2
20260901010206 57 140 5.0 6.0 0.00 0.20 0.01 92 1006.1
20260901004705 57 160 5.0 6.0 0.00 0.20 0.01 91 1006.1
20260901004206 57 149 3.0 6.0 0.00 0.20 0.01 91 1006.1
20260901000705 57 197 5.0 6.0 0.00 0.20 0.01 91 1006.0
20260831233707 57 173 5.0 6.0 0.01 0.20 0.01 91 1005.8
20260831232706 57 165 3.0 6.0 0.01 0.20 0.01 91 1005.9
20260831232205 57 185 3.0 5.0 0.01 0.20 0.01 91 1005.9
20260831230708 58 159 4.0 6.0 0.01 0.20 0.01 91 1005.9
20260831230206 58 180 3.0 5.0 0.01 0.20 0.01 91 1005.9
20260831225709 58 177 3.0 6.0 0.01 0.20 0.01 91 1005.9
20260831224705 58 190 5.0 6.0 0.00 0.19 0.00 91 1005.8
20260831222207 59 166 5.0 8.0 0.00 0.19 0.00 91 1006.0
20260831221207 59 180 3.0 5.0 0.00 0.19 0.00 91 1005.9
20260831215707 59 164 5.0 6.0 0.00 0.19 0.19 91 1005.9
20260831214707 60 176 3.0 5.0 0.00 0.19 0.19 90 1005.9
20260831213205 60 162 5.0 6.0 0.00 0.19 0.19 91 1005.8
20260831212705 60 156 6.0 7.0 0.00 0.19 0.19 91 1005.8
20260831212205 60 171 6.0 7.0 0.00 0.19 0.19 90 1005.8
20260831211205 60 177 5.0 8.0 0.01 0.19 0.19 90 1005.7
20260831210706 60 164 5.0 6.0 0.01 0.19 0.19 90 1005.6
20260831210208 60 154 6.0 6.0 0.01 0.19 0.19 90 1005.6
20260831203705 61 198 2.0 5.0 0.02 0.19 0.19 90 1005.4
20260831201207 61 155 5.0 6.0 0.01 0.18 0.18 90 1005.3
20260831195706 60 180 2.0 5.0 0.00 0.17 0.17 89 1005.3
20260831195205 60 162 0.0 0.0 0.00 0.17 0.17 89 1005.3
20260831194705 60 166 1.0 3.0 0.00 0.17 0.17 89 1005.2
20260831194207 60 166 2.0 5.0 0.00 0.17 0.17 89 1005.2
20260831192205 60 155 6.0 7.0 0.00 0.17 0.17 88 1005.2
20260831191206 60 170 6.0 8.0 0.00 0.17 0.17 87 1005.2
20260831190705 60 157 5.0 7.0 0.00 0.17 0.17 87 1005.2
20260831185705 60 171 3.0 8.0 0.00 0.17 0.17 87 1005.2
20260831185206 61 165 6.0 7.0 0.00 0.17 0.17 86 1005.0
20260831184705 61 172 2.0 5.0 0.00 0.17 0.17 86 1005.0
20260831183706 61 177 4.0 5.0 0.00 0.17 0.17 86 1004.9
20260831183206 61 191 2.0 3.0 0.00 0.17 0.17 85 1004.9
20260831182707 62 195 2.0 5.0 0.00 0.17 0.17 85 1004.9
20260831181705 62 209 1.0 3.0 0.00 0.17 0.17 84 1004.6
20260831181205 62 192 1.0 5.0 0.00 0.17 0.17 84 1004.6
20260831175204 63 207 1.0 3.0 0.00 0.17 0.17 84 1004.5
20260831173204 64 186 4.0 7.0 0.00 0.17 0.17 82 1004.5
20260831170706 66 237 6.0 10.0 0.00 0.17 0.17 84 1004.4
20260831170205 66 232 6.0 17.0 0.00 0.17 0.17 85 1004.4
20260831165205 66 215 5.0 7.0 0.00 0.17 0.17 88 1004.5
20260831164205 65 195 4.0 7.0 0.01 0.17 0.17 89 1004.6
20260831161705 63 147 5.0 7.0 0.01 0.17 0.17 88 1004.6
20260831155708 63 166 1.0 2.0 0.05 0.17 0.17 87 1004.2
20260831155207 63 165 3.0 5.0 0.05 0.17 0.17 86 1004.2
20260831154705 63 178 3.0 6.0 0.05 0.17 0.17 86 1004.3
20260831154206 63 170 3.0 5.0 0.04 0.16 0.16 85 1004.3
20260831153705 63 173 4.0 7.0 0.04 0.16 0.16 85 1004.4
20260831152707 65 188 6.0 7.0 0.04 0.16 0.16 83 1004.4
20260831151206 67 268 5.0 13.0 0.01 0.13 0.13 80 1004.5
20260831150707 67 296 5.0 7.0 0.00 0.12 0.12 78 1004.5
20260831145205 68 289 3.0 7.0 0.00 0.12 0.12 76 1004.4
20260831144707 68 206 5.0 8.0 0.00 0.12 0.12 76 1004.3
20260831144206 68 232 7.0 13.0 0.00 0.12 0.12 76 1004.4
20260831143204 68 198 6.0 10.0 0.00 0.12 0.12 75 1004.4
20260831142704 69 220 5.0 8.0 0.00 0.12 0.12 75 1004.5
20260831142205 69 230 3.0 7.0 0.00 0.12 0.12 75 1004.5
20260831141705 69 220 7.0 8.0 0.00 0.12 0.12 73 1004.4
20260831140706 70 211 6.0 15.0 0.00 0.12 0.12 73 1004.3
20260831133205 70 221 8.0 15.0 0.00 0.17 0.12 73 1004.4
20260831132206 70 213 9.0 16.0 0.00 0.19 0.12 72 1004.3
20260831131206 70 203 10.0 15.0 0.00 0.19 0.12 73 1004.4
20260831130705 70 274 10.0 16.0 0.00 0.19 0.12 75 1004.4
20260831125706 69 183 10.0 18.0 0.00 0.19 0.12 76 1004.3
20260831123205 69 195 8.0 20.0 0.00 0.19 0.12 76 1004.3
20260831122705 69 192 13.0 20.0 0.00 0.19 0.12 76 1004.3
20260831115207 68 180 9.0 16.0 0.00 0.19 0.12 82 1004.3
20260831114206 67 190 11.0 18.0 0.00 0.19 0.12 85 1004.3
20260831111707 67 155 12.0 18.0 0.01 0.21 0.12 87 1004.2
20260831111208 67 161 7.0 14.0 0.01 0.21 0.12 87 1004.3
20260831110708 66 165 10.0 18.0 0.01 0.21 0.12 87 1004.2
20260831105208 66 160 10.0 16.0 0.01 0.21 0.12 89 1004.2
20260831103706 66 165 12.0 18.0 0.02 0.20 0.11 91 1004.2
20260831101707 63 206 5.0 7.0 0.07 0.20 0.11 90 1004.6
20260831101206 63 169 7.0 15.0 0.07 0.20 0.11 89 1004.6
20260831095705 63 165 10.0 16.0 0.07 0.20 0.11 88 1004.8
20260831095206 64 173 6.0 13.0 0.07 0.21 0.11 88 1004.8
20260831094707 64 170 7.0 16.0 0.07 0.22 0.11 86 1004.8
20260831094206 65 174 8.0 18.0 0.07 0.22 0.11 86 1004.8